Location: Les Salelles
(44.4192°N, 4.1044°E)
Time: 17:04:10
(UTC+00:00)

CORIOLIS - Pass Details

Date: 20 January 2021
Orbit: 818 x 839 km, 98.7° (Epoch: 25 February)

Event Time Altitude Azimuth Distance (km) Brightness Sun altitude
Rises 17:11:45 0° 164° (SSE) 3,366 7.4 -6.5°
Reaches altitude 10° 17:14:06 10° 164° (SSE) 2,433 6.7 -6.9°
Maximum altitude 17:19:30 90° 251° (WSW) 835 4.2 -7.8°
Drops below altitude 10° 17:24:55 10° 346° (NNW) 2,436 6.6 -8.7°
Sets 17:27:16 0° 347° (NNW) 3,371 7.3 -9.1°
